Weather History for KDAN - July, 2013

Change the Weather History Date:

Thursday, July 4, 2013

  Actual Average Record
Temperature  
Mean Temperature 80 °F 78 °F  
Max Temperature 87 °F 88 °F 98 °F (1955)
Min Temperature 72 °F 68 °F 56 °F (1996)
Degree Days  
Heating Degree Days 0 0  
Month to date heating degree days 0 0  
Since 1 June heating degree days 0 3  
Since 1 July heating degree days 0 0  
Cooling Degree Days 15 13  
Month to date cooling degree days 51 52  
Year to date cooling degree days 524 493  
Since 1 June cooling degree days 362 349  
Growing Degree Days 30 (Base 50)    
Moisture  
Dew Point 71 °F    
Average Humidity 76    
Maximum Humidity 93    
Minimum Humidity 59    
Precipitation  
Precipitation 0.28 in 0.13 in 2.03 in (1981)
Month to date precipitation 1.42 0.51  
Year to date precipitation 27.57 22.24  
Snow  
Snow 0.00 in - - ()
Month to date snowfall 0.0  
Since 1 June snowfall 0.0  
Since 1 July snowfall 0.0  
Snow Depth 0.00 in    
Sea Level Pressure  
Sea Level Pressure 30.24 in    
Wind  
Wind Speed 3 mph (SSE)    
Max Wind Speed 13 mph    
Max Gust Speed 23 mph    
Visibility 9 miles    
Events Rain    
T = Trace of Precipitation, MM = Missing Value Source: NWS Daily Summary

Daily Weather History Graph

Daily Weather History Graph

Search for Another Location

Airport or City:

Trip Planner

Search our weather history database for the weather conditions in past years. The results will help you decide how hot, cold, wet, or windy it might be!

Date:

Astronomy

Jul. 04, 2013 Rise Set
Actual Time 6:04 AM EDT 8:39 PM EDT
Civil Twilight 5:33 AM EDT 9:09 PM EDT
Nautical Twilight 4:56 AM EDT 9:47 PM EDT
Astronomical Twilight 4:14 AM EDT 10:29 PM EDT
Moon 3:17 AM EDT (7/4) 5:43 PM EDT (7/4)
Length of Visible Light 15h 35m
Length of Day
14h 35m
Waning Crescent, 11% of the Moon is Illuminated
Jul 4
Waning Crescent
Jul 8
New
Jul 15
First Quarter
Jul 22
Full
Jul 29
Last Quarter

Hourly Weather History & Observations

Time (EDT) Temp. Heat Index Dew Point Humidity Pressure Visibility Wind Dir Wind Speed Gust Speed Precip Events Conditions
12:53 AM 73.0 °F - 70.0 °F 90% 30.23 in 10.0 mi Calm Calm - N/A   Clear
1:53 AM 73.0 °F - 70.0 °F 90% 30.22 in 10.0 mi Calm Calm - N/A   Clear
2:10 AM 73.4 °F - 69.8 °F 88% 30.25 in 10.0 mi Calm Calm - N/A   Mostly Cloudy
2:33 AM 73.4 °F - 71.6 °F 94% 30.25 in 10.0 mi Calm Calm - N/A   Overcast
2:53 AM 73.0 °F - 71.1 °F 93% 30.22 in 10.0 mi South 3.5 mph - N/A   Overcast
3:09 AM 73.4 °F - 71.6 °F 94% 30.25 in 10.0 mi South 4.6 mph - N/A   Overcast
3:45 AM 73.4 °F - 71.6 °F 94% 30.24 in 10.0 mi South 4.6 mph - N/A   Overcast
3:53 AM 73.0 °F - 70.0 °F 90% 30.21 in 10.0 mi Variable 3.5 mph - N/A   Overcast
4:18 AM 73.4 °F - 71.6 °F 94% 30.24 in 10.0 mi South 3.5 mph - N/A   Overcast
4:53 AM 73.9 °F - 71.1 °F 91% 30.22 in 10.0 mi Calm Calm - N/A   Overcast
5:03 AM 73.4 °F - 71.6 °F 94% 30.25 in 10.0 mi Calm Calm - N/A   Overcast
5:16 AM 73.4 °F - 71.6 °F 94% 30.26 in 10.0 mi Calm Calm - N/A   Overcast
5:50 AM 73.4 °F - 71.6 °F 94% 30.26 in 10.0 mi Calm Calm - N/A   Overcast
5:53 AM 73.9 °F - 71.1 °F 91% 30.23 in 10.0 mi Calm Calm - N/A   Overcast
6:00 AM 73.4 °F - 71.6 °F 94% 30.26 in 10.0 mi Calm Calm - N/A   Overcast
6:26 AM 73.4 °F - 71.6 °F 94% 30.26 in 2.5 mi Calm Calm - 0.05 in Rain Rain
6:34 AM 73.4 °F - 71.6 °F 94% 30.26 in 3.0 mi Calm Calm - 0.06 in Rain Light Rain
6:41 AM 73.4 °F - 71.6 °F 94% 30.26 in 9.0 mi Calm Calm - 0.06 in   Overcast
6:53 AM 73.9 °F - 72.0 °F 93% 30.24 in 7.0 mi Calm Calm - 0.06 in Rain Light Rain
7:04 AM 73.4 °F - 71.6 °F 94% 30.27 in 6.0 mi SE 3.5 mph - 0.00 in Rain Light Rain
7:24 AM 73.4 °F - 71.6 °F 94% 30.27 in 10.0 mi Calm Calm - 0.00 in   Overcast
7:53 AM 75.0 °F - 72.0 °F 90% 30.25 in 10.0 mi South 4.6 mph - 0.00 in   Overcast
8:37 AM 77.0 °F - 71.6 °F 83% 30.29 in 10.0 mi Variable 6.9 mph - N/A   Scattered Clouds
8:53 AM 78.1 °F - 72.0 °F 81% 30.26 in 10.0 mi Variable 5.8 mph - N/A   Clear
9:53 AM 79.0 °F - 72.0 °F 79% 30.25 in 10.0 mi South 5.8 mph - N/A   Mostly Cloudy
10:53 AM 80.1 °F 83.2 °F 70.0 °F 71% 30.25 in 10.0 mi SSW 8.1 mph - N/A   Mostly Cloudy
11:03 AM 80.6 °F 84.6 °F 71.6 °F 74% 30.28 in 10.0 mi Variable 4.6 mph - N/A   Partly Cloudy
11:53 AM 84.0 °F 89.0 °F 71.1 °F 65% 30.25 in 10.0 mi Variable 5.8 mph - N/A   Scattered Clouds
12:53 PM 78.1 °F - 73.0 °F 84% 30.25 in 8.0 mi SE 5.8 mph 17.3 mph 0.00 in Rain Light Rain
1:53 PM 84.0 °F 89.6 °F 72.0 °F 67% 30.23 in 10.0 mi SSW 5.8 mph - 0.00 in   Clear
2:53 PM 84.0 °F 89.6 °F 72.0 °F 67% 30.21 in 10.0 mi Variable 5.8 mph - N/A   Mostly Cloudy
3:53 PM 87.1 °F 92.8 °F 71.1 °F 59% 30.19 in 10.0 mi SE 9.2 mph - N/A   Clear
4:53 PM 82.9 °F 88.0 °F 72.0 °F 69% 30.18 in 10.0 mi Variable 3.5 mph - N/A   Clear
5:53 PM 84.9 °F 90.7 °F 72.0 °F 65% 30.17 in 10.0 mi Variable 4.6 mph - N/A   Clear
6:53 PM 82.0 °F 86.7 °F 72.0 °F 71% 30.17 in 10.0 mi Calm Calm - N/A   Clear
7:53 PM 80.1 °F 84.5 °F 73.9 °F 81% 30.19 in 10.0 mi Calm Calm - N/A   Clear
8:53 PM 78.1 °F - 73.0 °F 84% 30.19 in 10.0 mi Calm Calm - N/A   Mostly Cloudy
9:42 PM 75.2 °F - 71.6 °F 89% 30.24 in 1.8 mi South 12.7 mph 23.0 mph 0.15 in Rain Heavy Rain
9:51 PM 73.4 °F - 69.8 °F 88% 30.24 in 3.0 mi SE 8.1 mph 19.6 mph 0.21 in Rain Rain
9:53 PM 73.0 °F - 69.1 °F 87% 30.22 in 4.0 mi SE 8.1 mph - 0.22 in Rain Light Rain
10:53 PM 72.0 °F - 70.0 °F 93% 30.23 in 10.0 mi Calm Calm - 0.00 in   Scattered Clouds
11:53 PM 73.0 °F - 70.0 °F 90% 30.23 in 10.0 mi Calm Calm - N/A   Clear